St.-Hubert, Quebec

7:27 AM EDT on September 24, 2017 (GMT -0400)
St.-Hubert

Weather History for CYHU - January, 2014

Change the Weather History Date:

Tuesday, January 7, 2014

  Actual Average Record
Temperature  
Mean Temperature 4 °F -  
Max Temperature 8 °F 23 °F 42 °F (2008)
Min Temperature 1 °F 5 °F -13 °F (2015)
Degree Days  
Heating Degree Days 60    
Moisture  
Dew Point -1 °F    
Average Humidity 68    
Maximum Humidity 86    
Minimum Humidity 38    
Precipitation  
Precipitation 0.00 in 0.09 in - ()
Sea Level Pressure  
Sea Level Pressure 29.66 in    
Wind  
Wind Speed 19 mph ()    
Max Wind Speed 37 mph    
Max Gust Speed 51 mph    
Visibility 5.0 miles    
Events Snow    
Averages and records for this station are not official NWS values.
T = Trace of Precipitation, MM = Missing Value Source: Averaged Metar Reports

Daily Weather History Graph

Daily Weather History Graph

Search for Another Location

Airport or City:

Trip Planner

Search our weather history database for the weather conditions in past years. The results will help you decide how hot, cold, wet, or windy it might be!

Date:

Astronomy

Jan. 07, 2014 Rise Set
Actual Time 7:33 AM EST 4:27 PM EST
Civil Twilight 6:59 AM EST 5:00 PM EST
Nautical Twilight 6:22 AM EST 5:37 PM EST
Astronomical Twilight 5:46 AM EST 6:13 PM EST
Moon 10:58 AM EST (1/7) No Moon Set
Length of Visible Light 10h 01m
Length of Day
8h 53m
Waxing Crescent, 45% of the Moon is Illuminated
Jan 7
Waxing Crescent
Jan 7
First Quarter
Jan 15
Full
Jan 24
Last Quarter
Jan 30
New

Hourly Weather History & Observations

Time (EST) Temp. Windchill Dew Point Humidity Pressure Visibility Wind Dir Wind Speed Gust Speed Precip Events Conditions
12:00 AM 14.0 °F -0.2 °F 8.6 °F 79% 29.50 in 2.5 mi West 12.7 mph 23.0 mph N/A Snow Light Snow
12:09 AM 14.0 °F -0.8 °F 8.6 °F 79% 29.50 in 3.0 mi WSW 13.8 mph - N/A Snow Light Snow
12:22 AM 14.0 °F 0.5 °F 8.6 °F 79% 29.51 in 2.5 mi WSW 11.5 mph 17.3 mph N/A Snow Light Snow
12:35 AM 14.0 °F 1.2 °F 8.6 °F 79% 29.51 in 1.8 mi WSW 10.4 mph - N/A Snow Light Snow
1:00 AM 13 °F - 10 °F 81% 29.52 in 1 mi West 11.5 mph - - Snow Light Snow
1:00 AM 14.0 °F 1.2 °F 10.4 °F 86% 29.52 in 1.5 mi West 10.4 mph - N/A Snow Light Snow
1:24 AM 12.2 °F -3.1 °F 8.6 °F 85% 29.53 in 2.0 mi West 13.8 mph - N/A Snow Light Snow
1:36 AM 12.2 °F -3.1 °F 8.6 °F 85% 29.53 in 1.8 mi West 13.8 mph - N/A Snow Light Snow
2:00 AM 12.2 °F -2.5 °F 8.6 °F 85% 29.54 in 1.5 mi WSW 12.7 mph - N/A Snow Light Snow
2:05 AM 12.2 °F -1.8 °F 8.6 °F 85% 29.55 in 2.0 mi West 11.5 mph 17.3 mph N/A Snow Light Snow
2:09 AM 12.2 °F -3.1 °F 6.8 °F 79% 29.54 in 3.0 mi West 13.8 mph - N/A Snow Light Snow
2:14 AM 12.2 °F -5.3 °F 6.8 °F 79% 29.54 in 6.0 mi West 18.4 mph - N/A Snow Light Snow
2:17 AM 12.2 °F -5.8 °F 6.8 °F 79% 29.54 in 4.0 mi West 19.6 mph - N/A Snow Light Snow
2:20 AM 12.2 °F -5.3 °F 6.8 °F 79% 29.55 in 2.5 mi West 18.4 mph 24.2 mph N/A Snow Light Snow
2:23 AM 12.2 °F -5.3 °F 6.8 °F 79% 29.55 in 1.8 mi West 18.4 mph 24.2 mph N/A Snow Light Snow
2:33 AM 12.2 °F -4.8 °F 6.8 °F 79% 29.55 in 1.8 mi WSW 17.3 mph 23.0 mph N/A Snow Light Snow
3:00 AM 10.4 °F -7.7 °F 5.0 °F 79% 29.56 in 1.8 mi West 18.4 mph 27.6 mph N/A Snow Light Snow
3:01 AM 10.4 °F -7.7 °F 5.0 °F 79% 29.56 in 2.0 mi West 18.4 mph 27.6 mph N/A Snow Light Snow
3:04 AM 10.4 °F -6.6 °F 5.0 °F 79% 29.56 in 3.0 mi West 16.1 mph 27.6 mph N/A Snow Light Snow
3:11 AM 10.4 °F -7.2 °F 3.2 °F 73% 29.57 in 5.0 mi West 17.3 mph - N/A Snow Light Snow
3:13 AM 10.4 °F -7.7 °F 3.2 °F 73% 29.57 in 6.0 mi West 18.4 mph - N/A Snow Light Snow
3:19 AM 10.4 °F -9.5 °F 1.4 °F 67% 29.57 in 5.0 mi West 23.0 mph - N/A Snow Light Snow
3:31 AM 8.6 °F -10.5 °F 1.4 °F 73% 29.58 in 3.0 mi West 19.6 mph 27.6 mph N/A   Haze
3:37 AM 8.6 °F -11.0 °F 1.4 °F 73% 29.58 in 3.0 mi West 20.7 mph 29.9 mph N/A Snow Light Snow
3:46 AM 8.6 °F -10.0 °F 1.4 °F 73% 29.59 in 7.0 mi West 18.4 mph 26.5 mph N/A Snow Light Snow
3:49 AM 8.6 °F -10.0 °F 1.4 °F 73% 29.59 in 7.0 mi West 18.4 mph 25.3 mph N/A   Overcast
3:50 AM 8.6 °F -11.0 °F 1.4 °F 73% 29.58 in 5.0 mi West 20.7 mph 27.6 mph N/A   Haze
3:52 AM 8.6 °F -10.5 °F -0.4 °F 67% 29.58 in 4.0 mi West 19.6 mph 27.6 mph N/A Snow Light Snow
4:00 AM 8.6 °F -7.7 °F -0.4 °F 67% 29.59 in 6.0 mi West 13.8 mph 26.5 mph N/A Snow Light Snow
4:04 AM 8.6 °F -11.0 °F 1.4 °F 73% 29.59 in 5.0 mi West 20.7 mph 27.6 mph N/A Snow Light Snow
4:15 AM 6.8 °F -15.9 °F -0.4 °F 72% 29.60 in 2.2 mi West 27.6 mph 36.8 mph N/A Snow Light Snow
4:26 AM 6.8 °F -13.4 °F -0.4 °F 72% 29.60 in 3.0 mi West 20.7 mph 31.1 mph N/A Snow Light Snow
4:38 AM 6.8 °F -13.8 °F -2.2 °F 67% 29.60 in 3.0 mi West 21.9 mph 31.1 mph N/A   Haze
4:44 AM 6.8 °F -14.7 °F -2.2 °F 67% 29.60 in 7.0 mi West 24.2 mph 29.9 mph N/A   Scattered Clouds
4:56 AM 6.8 °F -17.3 °F -0.4 °F 72% 29.60 in 4.0 mi WSW 32.2 mph - N/A   Haze
4:57 AM 6.8 °F -16.6 °F -2.2 °F 67% 29.60 in 3.0 mi WSW 29.9 mph 38.0 mph N/A Snow Light Snow
5:00 AM 6.8 °F -14.3 °F -2.2 °F 67% 29.60 in 3.0 mi West 23.0 mph 38.0 mph N/A Snow Light Snow
5:04 AM 6.8 °F -15.5 °F -2.2 °F 67% 29.60 in 2.0 mi West 26.5 mph 38.0 mph N/A Snow Light Snow
5:13 AM 6.8 °F -13.4 °F -2.2 °F 67% 29.61 in 3.0 mi West 20.7 mph 34.5 mph N/A Snow Light Snow
5:19 AM 6.8 °F -14.3 °F -2.2 °F 67% 29.61 in 4.0 mi West 23.0 mph 36.8 mph N/A   Haze
5:28 AM 6.8 °F -16.2 °F -2.2 °F 67% 29.61 in 3.0 mi West 28.8 mph - N/A Snow Light Snow
5:29 AM 5.0 °F -17.9 °F -2.2 °F 72% 29.61 in 2.5 mi West 26.5 mph 34.5 mph N/A Snow Light Snow
5:36 AM 5.0 °F -17.1 °F -2.2 °F 72% 29.60 in 3.0 mi West 24.2 mph 34.5 mph N/A Snow Light Snow
5:39 AM 5.0 °F -16.2 °F -2.2 °F 72% 29.61 in 6.0 mi West 21.9 mph 32.2 mph N/A Snow Light Snow
5:40 AM 5.0 °F -16.2 °F -2.2 °F 72% 29.61 in 6.0 mi West 21.9 mph 29.9 mph N/A   Haze
5:44 AM 5.0 °F -17.9 °F -2.2 °F 72% 29.61 in 5.0 mi West 26.5 mph 33.4 mph N/A   Haze
6:00 AM 5.0 °F -19.0 °F -2.2 °F 72% 29.61 in 3.0 mi WSW 29.9 mph 36.8 mph N/A   Haze
6:02 AM 5.0 °F -17.9 °F -2.2 °F 72% 29.62 in 3.0 mi WSW 26.5 mph 36.8 mph N/A Snow Light Snow
6:07 AM 5.0 °F -19.4 °F -2.2 °F 72% 29.61 in 2.5 mi West 31.1 mph 36.8 mph N/A Snow Light Snow
6:11 AM 5.0 °F -18.7 °F -2.2 °F 72% 29.62 in 3.0 mi West 28.8 mph 38.0 mph N/A Snow Light Snow
6:21 AM 5.0 °F -17.5 °F -4.0 °F 66% 29.63 in 6.0 mi West 25.3 mph 39.1 mph N/A Snow Light Snow
6:25 AM 5.0 °F -16.2 °F -4.0 °F 66% 29.63 in 9.0 mi West 21.9 mph 39.1 mph N/A   Scattered Clouds
6:55 AM 3.2 °F -22.5 °F -7.6 °F 61% 29.65 in 9.0 mi West 33.4 mph 40.3 mph N/A   Mostly Cloudy
7:00 AM 3 °F - -7 °F 47% 29.65 in 6 mi West 32.2 mph - -   Light Haze
7:00 AM 3.2 °F -22.9 °F -7.6 °F 61% 29.65 in 6.0 mi WSW 34.5 mph 41.4 mph N/A   Haze
7:01 AM 3.2 °F -23.2 °F -7.6 °F 61% 29.65 in 4.0 mi WSW 35.7 mph 41.4 mph N/A   Haze
7:02 AM 3.2 °F -22.5 °F -7.6 °F 61% 29.65 in 4.0 mi West 33.4 mph 42.6 mph N/A Snow Light Snow
7:14 AM 3.2 °F -21.5 °F -7.6 °F 61% 29.67 in 6.0 mi WSW 29.9 mph 39.1 mph N/A Snow Light Snow
7:19 AM 3.2 °F -19.9 °F -7.6 °F 61% 29.68 in 9.0 mi West 25.3 mph 35.7 mph N/A   Partly Cloudy
8:00 AM 3.2 °F -18.1 °F -7.6 °F 61% 29.72 in 9.0 mi West 20.7 mph 39.1 mph N/A   Overcast
8:07 AM 1.4 °F -25.0 °F -9.4 °F 61% 29.71 in 9.0 mi West 33.4 mph - N/A   Overcast
9:00 AM 3.2 °F -19.0 °F -5.8 °F 66% 29.76 in 9.0 mi West 23.0 mph 29.9 mph N/A   Mostly Cloudy
10:00 AM 5.0 °F -17.1 °F -4.0 °F 66% 29.78 in 9.0 mi West 24.2 mph 38.0 mph N/A   Overcast
10:18 AM 5.0 °F -18.3 °F -2.2 °F 72% 29.78 in 5.0 mi WSW 27.6 mph 39.1 mph N/A   Haze
10:41 AM 6.8 °F -12.9 °F -2.2 °F 67% 29.78 in 6.0 mi West 19.6 mph 32.2 mph N/A   Haze
10:48 AM 6.8 °F -14.7 °F -2.2 °F 67% 29.78 in 5.0 mi West 24.2 mph 33.4 mph N/A   Haze
11:00 AM 6.8 °F -15.1 °F -2.2 °F 67% 29.78 in 4.0 mi West 25.3 mph 33.4 mph N/A   Haze
11:03 AM 6.8 °F -13.8 °F -0.4 °F 72% 29.78 in 2.5 mi West 21.9 mph 33.4 mph N/A Snow Blowing Snow
11:07 AM 6.8 °F -15.1 °F -0.4 °F 72% 29.78 in 1.8 mi WSW 25.3 mph 32.2 mph N/A Snow Light Snow
11:24 AM 6.8 °F -16.9 °F -2.2 °F 67% 29.76 in 2.0 mi WSW 31.1 mph 38.0 mph N/A Snow Light Snow
11:28 AM 6.8 °F -16.9 °F -2.2 °F 67% 29.77 in 2.5 mi WSW 31.1 mph 38.0 mph N/A Snow Blowing Snow
11:31 AM 6.8 °F -15.5 °F -2.2 °F 67% 29.76 in 3.0 mi WSW 26.5 mph 38.0 mph N/A Snow Blowing Snow
11:36 AM 6.8 °F -17.3 °F -2.2 °F 67% 29.76 in 6.0 mi WSW 32.2 mph 41.4 mph N/A   Haze
11:48 AM 6.8 °F -17.3 °F -4.0 °F 61% 29.76 in 5.0 mi WSW 32.2 mph 39.1 mph N/A   Haze
11:50 AM 6.8 °F -17.6 °F -4.0 °F 61% 29.76 in 6.0 mi WSW 33.4 mph 40.3 mph N/A   Haze
12:00 PM 6.8 °F -16.6 °F -5.8 °F 56% 29.76 in 9.0 mi WSW 29.9 mph 42.6 mph N/A   Overcast
1:00 PM 8 °F - -6 °F 38% 29.76 in 9 mi WSW 32.2 mph - -  
1:00 PM 8.6 °F -16.0 °F -5.8 °F 52% 29.76 in 9.0 mi WSW 36.8 mph 48.3 mph N/A   Mostly Cloudy
2:00 PM 6.8 °F -17.6 °F -7.6 °F 52% 29.78 in 9.0 mi WSW 33.4 mph 50.6 mph N/A   Mostly Cloudy
3:00 PM 6.8 °F -18.2 °F -7.6 °F 52% 29.80 in 9.0 mi WSW 35.7 mph - N/A   Partly Cloudy
4:00 PM 6.8 °F -17.3 °F -7.6 °F 52% 29.81 in 9.0 mi WSW 32.2 mph 40.3 mph N/A   Clear
5:00 PM 6.8 °F -16.6 °F -7.6 °F 52% 29.84 in 9.0 mi WSW 29.9 mph 40.3 mph N/A   Mostly Cloudy
6:00 PM 6.8 °F -15.9 °F -5.8 °F 56% 29.86 in 9.0 mi WSW 27.6 mph 35.7 mph N/A   Overcast
7:00 PM 7 °F - -6 °F 38% 29.88 in 10 mi SW 27.6 mph - -   Overcast
7:00 PM 6.8 °F -15.5 °F -5.8 °F 56% 29.88 in 9.0 mi WSW 26.5 mph 38.0 mph N/A   Overcast
8:00 PM 6.8 °F -17.3 °F -5.8 °F 56% 29.91 in 9.0 mi WSW 32.2 mph 40.3 mph N/A   Mostly Cloudy
9:00 PM 6.8 °F -15.5 °F -5.8 °F 56% 29.94 in 9.0 mi WSW 26.5 mph 35.7 mph N/A   Clear
10:00 PM 6.8 °F -12.9 °F -5.8 °F 56% 29.97 in 9.0 mi West 19.6 mph 32.2 mph N/A   Clear
11:00 PM 6.8 °F -13.4 °F -5.8 °F 56% 29.99 in 9.0 mi WSW 20.7 mph 29.9 mph N/A   Clear